Location: Bratislava
(0.0000°N, 17.1167°E)
Time: 04:52:15
(UTC+01:00)

CZ-2C R/B - Pass Details

Date: 24 January 2021
Orbit: 785 x 870 km, 98.2° (Epoch: 06 March)

Event Time Altitude Azimuth Distance (km) Brightness Sun altitude
Rises 19:17:17 0° 355° (N) 3,439 5.7 -17.3°
Reaches altitude 10° 19:19:51 10° 346° (NNW) 2,505 5.1 -17.9°
Maximum altitude 19:24:51 34° 282° (WNW) 1,380 4.3 -19.1°
Drops below altitude 10° 19:29:51 10° 218° (SW) 2,499 6.0 -20.3°
Sets 19:32:26 0° 209° (SSW) 3,430 6.6 -20.9°
